THY538 GUCY-DFFD

Flight info

Callsign THY538
Flight time 1h 51m
Altitude 37000
Route EDBAL UG854 VOLNA UG854 ANIXA
Aircraft B38M/M-SADE1E2E3FGHIJ1M3RWY/LB1

Departure

Time 2026-05-04 22:26
Airport Ahmed Sékou Touré International Airport (GUCY)

Arrival

Time 2026-05-05 00:17
Airport Ouagadougou Thomas Sankara International Airport (DFFD)
Time Latitude Longitude Altitude Speed Heading
2026-05-04 21:32 9.57467 -13.61921 76 ft 0 kts 313°
2026-05-04 22:09 9.57462 -13.61916 76 ft 2 kts 313°
2026-05-04 22:09 9.57450 -13.61903 62 ft 2 kts 313°
2026-05-04 22:09 9.57440 -13.61892 66 ft 2 kts 313°
2026-05-04 22:10 9.57428 -13.61880 66 ft 2 kts 327°
2026-05-04 22:10 9.57413 -13.61873 69 ft 2 kts 343°
2026-05-04 22:10 9.57397 -13.61869 68 ft 2 kts 344°
2026-05-04 22:10 9.57381 -13.61865 68 ft 2 kts 356°
2026-05-04 22:11 9.57365 -13.61867 69 ft 2 kts 22°
2026-05-04 22:11 9.57352 -13.61876 74 ft 2 kts 45°
2026-05-04 22:11 9.57349 -13.61879 67 ft 0 kts 50°
2026-05-04 22:17 9.57359 -13.61866 69 ft 5 kts 50°
2026-05-04 22:17 9.57389 -13.61831 72 ft 8 kts 49°
2026-05-04 22:17 9.57435 -13.61776 73 ft 12 kts 50°
2026-05-04 22:18 9.57495 -13.61705 71 ft 15 kts 49°
2026-05-04 22:18 9.57572 -13.61616 74 ft 19 kts 48°
2026-05-04 22:18 9.57662 -13.61509 70 ft 20 kts 49°
2026-05-04 22:18 9.57755 -13.61401 73 ft 19 kts 50°
2026-05-04 22:19 9.57815 -13.61330 67 ft 11 kts 51°
2026-05-04 22:19 9.57838 -13.61265 72 ft 9 kts 93°
2026-05-04 22:19 9.57835 -13.61226 72 ft 5 kts 95°
2026-05-04 22:19 9.57834 -13.61219 71 ft 0 kts 95°
2026-05-04 22:21 9.57834 -13.61215 71 ft 2 kts 95°
2026-05-04 22:21 9.57832 -13.61186 67 ft 6 kts 94°
2026-05-04 22:21 9.57827 -13.61129 66 ft 10 kts 95°
2026-05-04 22:21 9.57822 -13.61056 70 ft 12 kts 94°
2026-05-04 22:22 9.57864 -13.60986 69 ft 13 kts 51°
2026-05-04 22:22 9.57931 -13.60906 65 ft 16 kts 49°
2026-05-04 22:22 9.58013 -13.60813 70 ft 19 kts 47°
2026-05-04 22:22 9.58104 -13.60706 69 ft 22 kts 49°
2026-05-04 22:23 9.58208 -13.60585 65 ft 23 kts 49°
2026-05-04 22:23 9.58318 -13.60457 62 ft 26 kts 50°
2026-05-04 22:23 9.58445 -13.60308 64 ft 27 kts 49°
2026-05-04 22:23 9.58561 -13.60178 62 ft 22 kts 51°
2026-05-04 22:24 9.58647 -13.60120 59 ft 10 kts 23°
2026-05-04 22:24 9.58660 -13.60098 58 ft 1 kts 116°
2026-05-04 22:24 9.58641 -13.60097 58 ft 6 kts 201°
2026-05-04 22:24 9.58604 -13.60118 61 ft 1 kts 231°
2026-05-04 22:25 9.58603 -13.60120 58 ft 0 kts 231°
2026-05-04 22:25 9.58585 -13.60143 63 ft 17 kts 231°
2026-05-04 22:25 9.58340 -13.60432 66 ft 90 kts 229°
2026-05-04 22:26 9.57777 -13.61093 65 ft 150 kts 229°
2026-05-04 22:26 9.57059 -13.61914 538 ft 160 kts 229°
2026-05-04 22:26 9.56290 -13.62774 1151 ft 170 kts 228°
2026-05-04 22:26 9.55453 -13.63719 1715 ft 190 kts 229°
2026-05-04 22:27 9.54533 -13.64808 2184 ft 218 kts 230°
2026-05-04 22:27 9.53504 -13.66044 2793 ft 238 kts 230°
2026-05-04 22:27 9.52431 -13.67362 3438 ft 255 kts 230°
2026-05-04 22:27 9.51287 -13.68774 3911 ft 264 kts 227°
2026-05-04 22:28 9.49846 -13.69947 4316 ft 266 kts 203°
2026-05-04 22:28 9.48041 -13.70258 4733 ft 266 kts 173°
2026-05-04 22:28 9.46286 -13.69671 5137 ft 268 kts 147°
2026-05-04 22:28 9.45004 -13.68348 5556 ft 268 kts 120°
2026-05-04 22:29 9.44463 -13.66535 5972 ft 270 kts 92°
2026-05-04 22:29 9.44758 -13.64664 6322 ft 272 kts 76°
2026-05-04 22:29 9.45101 -13.62809 6624 ft 272 kts 82°
2026-05-04 22:29 9.45408 -13.60885 6933 ft 272 kts 81°
2026-05-04 22:30 9.45715 -13.58990 7224 ft 272 kts 81°
2026-05-04 22:30 9.46022 -13.57118 7538 ft 272 kts 81°
2026-05-04 22:30 9.46330 -13.55244 8007 ft 272 kts 81°
2026-05-04 22:30 9.46645 -13.53334 8486 ft 273 kts 81°
2026-05-04 22:31 9.46959 -13.51436 8965 ft 273 kts 81°
2026-05-04 22:31 9.47274 -13.49535 9450 ft 273 kts 81°
2026-05-04 22:31 9.47585 -13.47658 9927 ft 273 kts 82°
2026-05-04 22:31 9.47898 -13.45770 10358 ft 274 kts 82°
2026-05-04 22:32 9.48218 -13.43841 10804 ft 276 kts 82°
2026-05-04 22:32 9.48686 -13.41946 11252 ft 279 kts 70°
2026-05-04 22:32 9.49423 -13.40109 11725 ft 282 kts 70°
2026-05-04 22:32 9.50145 -13.38286 12178 ft 288 kts 70°
2026-05-04 22:33 9.50917 -13.36332 12720 ft 305 kts 70°
2026-05-04 22:33 9.51720 -13.34297 13374 ft 316 kts 70°
2026-05-04 22:33 9.52545 -13.32207 13771 ft 320 kts 70°
2026-05-04 22:33 9.53373 -13.30110 13893 ft 321 kts 70°
2026-05-04 22:34 9.54203 -13.28002 13945 ft 321 kts 70°
2026-05-04 22:34 9.55022 -13.25922 13953 ft 321 kts 70°
2026-05-04 22:34 9.55856 -13.23806 14118 ft 320 kts 70°
2026-05-04 22:34 9.56514 -13.21674 14727 ft 322 kts 79°
2026-05-04 22:35 9.57038 -13.19448 15525 ft 327 kts 77°
2026-05-04 22:35 9.57593 -13.17200 16244 ft 333 kts 77°
2026-05-04 22:35 9.58173 -13.14895 17002 ft 338 kts 77°
2026-05-04 22:35 9.58764 -13.12572 17719 ft 343 kts 77°
2026-05-04 22:36 9.59361 -13.10239 18329 ft 351 kts 76°
2026-05-04 22:36 9.59979 -13.07835 18720 ft 352 kts 76°
2026-05-04 22:36 9.60599 -13.05422 19126 ft 354 kts 76°
2026-05-04 22:36 9.61222 -13.02989 19540 ft 357 kts 76°
2026-05-04 22:37 9.61850 -13.00543 19972 ft 360 kts 76°
2026-05-04 22:37 9.62479 -12.98100 20396 ft 363 kts 76°
2026-05-04 22:37 9.63120 -12.95604 20830 ft 366 kts 76°
2026-05-04 22:37 9.63765 -12.93095 21280 ft 369 kts 76°
2026-05-04 22:38 9.64405 -12.90584 21751 ft 373 kts 76°
2026-05-04 22:38 9.65065 -12.88022 22231 ft 376 kts 76°
2026-05-04 22:38 9.65730 -12.85433 22723 ft 380 kts 76°
2026-05-04 22:38 9.66390 -12.82860 23100 ft 385 kts 76°
2026-05-04 22:39 9.67077 -12.80177 23491 ft 386 kts 76°
2026-05-04 22:39 9.67748 -12.77555 23812 ft 389 kts 76°
2026-05-04 22:39 9.68431 -12.74888 24126 ft 392 kts 76°
2026-05-04 22:39 9.69112 -12.72231 24444 ft 394 kts 76°
2026-05-04 22:40 9.69811 -12.69499 24777 ft 397 kts 75°
2026-05-04 22:40 9.70495 -12.66824 25102 ft 399 kts 75°
2026-05-04 22:40 9.71200 -12.64070 25440 ft 402 kts 75°
2026-05-04 22:40 9.71905 -12.61300 25761 ft 407 kts 76°
2026-05-04 22:41 9.72604 -12.58563 26059 ft 410 kts 75°
2026-05-04 22:41 9.73328 -12.55738 26361 ft 413 kts 75°
2026-05-04 22:41 9.74054 -12.52898 26669 ft 414 kts 75°
2026-05-04 22:41 9.74777 -12.50064 26985 ft 415 kts 75°
2026-05-04 22:42 9.75502 -12.47223 27302 ft 416 kts 75°
2026-05-04 22:42 9.76221 -12.44405 27585 ft 419 kts 75°
2026-05-04 22:42 9.76966 -12.41483 27877 ft 426 kts 75°
2026-05-04 22:42 9.77700 -12.38604 28357 ft 427 kts 75°
2026-05-04 22:43 9.78447 -12.35671 28738 ft 432 kts 75°
2026-05-04 22:43 9.79201 -12.32712 29127 ft 435 kts 75°
2026-05-04 22:43 9.79955 -12.29749 29519 ft 439 kts 75°
2026-05-04 22:43 9.80728 -12.26712 29898 ft 442 kts 75°
2026-05-04 22:44 9.81502 -12.23671 30245 ft 446 kts 75°
2026-05-04 22:44 9.82267 -12.20663 30557 ft 449 kts 75°
2026-05-04 22:44 9.83043 -12.17609 30885 ft 452 kts 75°
2026-05-04 22:44 9.83837 -12.14483 31213 ft 455 kts 75°
2026-05-04 22:45 9.84630 -12.11362 31535 ft 457 kts 75°
2026-05-04 22:45 9.86218 -12.05105 32174 ft 463 kts 75°
2026-05-04 22:45 9.86844 -12.01888 32471 ft 466 kts 82°
2026-05-04 22:46 9.87298 -11.98606 32791 ft 469 kts 81°
2026-05-04 22:46 9.87740 -11.95372 33075 ft 472 kts 82°
2026-05-04 22:46 9.88186 -11.92075 33381 ft 475 kts 82°
2026-05-04 22:46 9.88642 -11.88700 33680 ft 478 kts 82°
2026-05-04 22:47 9.89094 -11.85344 33973 ft 481 kts 82°
2026-05-04 22:47 9.89547 -11.81976 34219 ft 484 kts 82°
2026-05-04 22:47 9.90004 -11.78578 34476 ft 486 kts 82°
2026-05-04 22:47 9.90462 -11.75172 34749 ft 488 kts 82°
2026-05-04 22:48 9.90922 -11.71746 34986 ft 491 kts 82°
2026-05-04 22:48 9.91384 -11.68303 35292 ft 492 kts 81°
2026-05-04 22:48 9.91840 -11.64902 35650 ft 491 kts 81°
2026-05-04 22:48 9.92299 -11.61472 36014 ft 490 kts 81°
2026-05-04 22:49 9.92752 -11.58086 36375 ft 490 kts 81°
2026-05-04 22:49 9.93217 -11.54613 36733 ft 489 kts 81°
2026-05-04 22:49 9.93673 -11.51195 36980 ft 490 kts 81°
2026-05-04 22:49 9.94123 -11.47832 36998 ft 487 kts 81°
2026-05-04 22:50 9.95034 -11.41040 36987 ft 485 kts 80°
2026-05-04 22:50 9.96101 -11.34251 36987 ft 485 kts 80°
2026-05-04 22:51 9.97156 -11.27485 36986 ft 483 kts 81°
2026-05-04 22:51 9.98192 -11.20796 36985 ft 480 kts 81°
2026-05-04 22:52 9.99233 -11.14077 36984 ft 480 kts 81°
2026-05-04 22:52 10.00265 -11.07408 36992 ft 480 kts 81°
2026-05-04 22:53 10.01300 -11.00712 36981 ft 480 kts 81°
2026-05-04 22:53 10.02326 -10.94063 36986 ft 479 kts 81°
2026-05-04 22:54 10.03359 -10.87363 36987 ft 479 kts 81°
2026-05-04 22:54 10.04388 -10.80678 36982 ft 479 kts 81°
2026-05-04 22:55 10.05607 -10.74089 36986 ft 478 kts 76°
2026-05-04 22:55 10.07099 -10.67516 36980 ft 478 kts 77°
2026-05-04 22:56 10.08560 -10.60907 36978 ft 478 kts 77°
2026-05-04 22:56 10.10002 -10.54361 36985 ft 478 kts 77°
2026-05-04 22:57 10.11451 -10.47777 36980 ft 478 kts 77°
2026-05-04 22:57 10.12891 -10.41230 36979 ft 477 kts 77°
2026-05-04 22:58 10.14339 -10.34637 36977 ft 478 kts 77°
2026-05-04 22:58 10.15543 -10.29150 36981 ft 478 kts 77°
2026-05-04 22:59 10.16987 -10.22567 36981 ft 478 kts 77°
2026-05-04 22:59 10.18430 -10.15979 36986 ft 478 kts 77°
2026-05-04 23:00 10.19865 -10.09423 36985 ft 478 kts 77°
2026-05-04 23:00 10.21305 -10.02833 36988 ft 478 kts 77°
2026-05-04 23:01 10.22754 -9.96238 36988 ft 478 kts 77°
2026-05-04 23:01 10.24204 -9.89640 36992 ft 478 kts 77°
2026-05-04 23:02 10.25641 -9.83095 36986 ft 478 kts 77°
2026-05-04 23:02 10.27086 -9.76506 36995 ft 478 kts 77°
2026-05-04 23:03 10.28533 -9.69906 36993 ft 478 kts 77°
2026-05-04 23:03 10.29968 -9.63350 36987 ft 478 kts 77°
2026-05-04 23:04 10.31413 -9.56743 36983 ft 478 kts 77°
2026-05-04 23:04 10.32846 -9.50180 36984 ft 478 kts 77°
2026-05-04 23:05 10.34285 -9.43588 36981 ft 478 kts 77°
2026-05-04 23:05 10.35723 -9.36992 36977 ft 478 kts 77°
2026-05-04 23:06 10.37162 -9.30388 36977 ft 478 kts 77°
2026-05-04 23:06 10.38525 -9.23810 36979 ft 478 kts 78°
2026-05-04 23:07 10.39893 -9.17171 36981 ft 478 kts 78°
2026-05-04 23:07 10.41255 -9.10562 36981 ft 478 kts 78°
2026-05-04 23:08 10.42613 -9.03969 36981 ft 478 kts 78°
2026-05-04 23:08 10.43962 -8.97411 36982 ft 478 kts 78°
2026-05-04 23:09 10.45326 -8.90771 36982 ft 477 kts 78°
2026-05-04 23:09 10.46682 -8.84164 36982 ft 477 kts 78°
2026-05-04 23:10 10.48037 -8.77556 36983 ft 477 kts 78°
2026-05-04 23:10 10.49391 -8.70945 36983 ft 477 kts 78°
2026-05-04 23:11 10.50681 -8.64361 36980 ft 477 kts 78°
2026-05-04 23:11 10.51968 -8.57757 36983 ft 477 kts 78°
2026-05-04 23:12 10.53253 -8.51158 36981 ft 476 kts 78°
2026-05-04 23:12 10.54540 -8.44544 36978 ft 476 kts 78°
2026-05-04 23:13 10.55824 -8.37934 36977 ft 476 kts 78°
2026-05-04 23:13 10.57108 -8.31322 36978 ft 476 kts 78°
2026-05-04 23:14 10.58383 -8.24747 36976 ft 476 kts 78°
2026-05-04 23:14 10.59660 -8.18149 36978 ft 476 kts 78°
2026-05-04 23:15 10.60924 -8.11618 36974 ft 475 kts 78°
2026-05-04 23:15 10.62209 -8.04967 36975 ft 475 kts 78°
2026-05-04 23:16 10.63358 -7.98346 36979 ft 475 kts 82°
2026-05-04 23:16 10.64305 -7.91757 36970 ft 475 kts 81°
2026-05-04 23:17 10.65287 -7.85068 36973 ft 475 kts 81°
2026-05-04 23:17 10.66264 -7.78416 36971 ft 475 kts 81°
2026-05-04 23:18 10.67234 -7.71805 36973 ft 475 kts 81°
2026-05-04 23:18 10.68203 -7.65194 36972 ft 475 kts 81°
2026-05-04 23:19 10.69180 -7.58512 36961 ft 475 kts 81°
2026-05-04 23:19 10.70148 -7.51886 36960 ft 475 kts 81°
2026-05-04 23:20 10.71121 -7.45209 36964 ft 475 kts 81°
2026-05-04 23:20 10.72084 -7.38601 36965 ft 475 kts 81°
2026-05-04 23:21 10.73051 -7.31951 36964 ft 475 kts 81°
2026-05-04 23:21 10.74019 -7.25280 36966 ft 475 kts 81°
2026-05-04 23:22 10.74974 -7.18691 36962 ft 475 kts 81°
2026-05-04 23:22 10.75934 -7.12062 36959 ft 475 kts 81°
2026-05-04 23:23 10.76891 -7.05433 36957 ft 475 kts 81°
2026-05-04 23:23 10.77855 -6.98759 36955 ft 475 kts 81°
2026-05-04 23:24 10.78814 -6.92103 36957 ft 475 kts 81°
2026-05-04 23:24 10.79768 -6.85443 36953 ft 475 kts 81°
2026-05-04 23:25 10.80710 -6.78844 36954 ft 475 kts 81°
2026-05-04 23:25 10.81660 -6.72174 36946 ft 475 kts 81°
2026-05-04 23:26 10.82608 -6.65515 36946 ft 475 kts 81°
2026-05-04 23:26 10.83549 -6.58888 36945 ft 475 kts 81°
2026-05-04 23:27 10.84495 -6.52221 36947 ft 475 kts 81°
2026-05-04 23:27 10.85438 -6.45561 36942 ft 475 kts 81°
2026-05-04 23:28 10.86380 -6.38901 36940 ft 475 kts 81°
2026-05-04 23:28 10.87315 -6.32279 36942 ft 475 kts 81°
2026-05-04 23:29 10.88254 -6.25618 36939 ft 475 kts 81°
2026-05-04 23:29 10.89192 -6.18949 36940 ft 475 kts 81°
2026-05-04 23:30 10.90129 -6.12283 36939 ft 476 kts 81°
2026-05-04 23:30 10.91060 -6.05647 36943 ft 476 kts 81°
2026-05-04 23:31 10.91991 -5.99004 36943 ft 476 kts 81°
2026-05-04 23:31 10.92927 -5.92315 36940 ft 476 kts 81°
2026-05-04 23:32 10.93855 -5.85672 36943 ft 476 kts 81°
2026-05-04 23:32 10.94785 -5.79007 36943 ft 476 kts 81°
2026-05-04 23:33 10.95719 -5.72300 36945 ft 477 kts 81°
2026-05-04 23:33 10.96646 -5.65633 36950 ft 477 kts 81°
2026-05-04 23:34 10.97574 -5.58946 36950 ft 477 kts 81°
2026-05-04 23:34 10.98497 -5.52287 36948 ft 477 kts 81°
2026-05-04 23:35 10.99424 -5.45581 36949 ft 477 kts 81°
2026-05-04 23:35 11.00352 -5.38873 36949 ft 477 kts 81°
2026-05-04 23:36 11.01275 -5.32179 36948 ft 477 kts 81°
2026-05-04 23:36 11.02190 -5.25538 36952 ft 477 kts 81°
2026-05-04 23:37 11.03117 -5.18805 36946 ft 477 kts 81°
2026-05-04 23:37 11.04037 -5.12102 36945 ft 477 kts 81°
2026-05-04 23:38 11.04950 -5.05441 36949 ft 477 kts 81°
2026-05-04 23:38 11.05868 -4.98739 36943 ft 477 kts 81°
2026-05-04 23:39 11.06783 -4.92036 36944 ft 477 kts 81°
2026-05-04 23:39 11.07693 -4.85372 36938 ft 477 kts 81°
2026-05-04 23:40 11.08606 -4.78667 36941 ft 477 kts 81°
2026-05-04 23:40 11.09513 -4.71996 36940 ft 477 kts 81°
2026-05-04 23:41 11.10426 -4.65269 36943 ft 477 kts 81°
2026-05-04 23:41 11.11326 -4.58628 36955 ft 477 kts 81°
2026-05-04 23:42 11.12238 -4.51889 36967 ft 477 kts 81°
2026-05-04 23:42 11.13138 -4.45222 36984 ft 477 kts 81°
2026-05-04 23:43 11.14042 -4.38519 36991 ft 477 kts 81°
2026-05-04 23:43 11.15880 -4.32093 37003 ft 474 kts 65°
2026-05-04 23:44 11.18454 -4.25925 36996 ft 475 kts 65°
2026-05-04 23:44 11.20647 -4.20789 36987 ft 475 kts 65°
2026-05-04 23:45 11.23297 -4.14610 36969 ft 475 kts 65°
2026-05-04 23:45 11.25924 -4.08485 36954 ft 475 kts 65°
2026-05-04 23:46 11.28598 -4.02245 36933 ft 475 kts 65°
2026-05-04 23:46 11.31225 -3.96111 36921 ft 475 kts 65°
2026-05-04 23:47 11.33867 -3.89938 36920 ft 475 kts 65°
2026-05-04 23:47 11.36500 -3.83781 36924 ft 475 kts 65°
2026-05-04 23:48 11.39147 -3.77588 36925 ft 476 kts 65°
2026-05-04 23:48 11.41795 -3.71388 36923 ft 476 kts 65°
2026-05-04 23:49 11.44439 -3.65194 36924 ft 476 kts 65°
2026-05-04 23:49 11.47062 -3.59045 36927 ft 476 kts 65°
2026-05-04 23:50 11.49709 -3.52835 36929 ft 476 kts 65°
2026-05-04 23:50 11.52346 -3.46642 36927 ft 476 kts 65°
2026-05-04 23:51 11.54958 -3.40508 36929 ft 469 kts 65°
2026-05-04 23:51 11.57544 -3.34428 36927 ft 466 kts 65°
2026-05-04 23:52 11.60109 -3.28394 36930 ft 462 kts 65°
2026-05-04 23:52 11.62668 -3.22370 36923 ft 460 kts 65°
2026-05-04 23:53 11.65200 -3.16407 36817 ft 460 kts 65°
2026-05-04 23:53 11.66469 -3.13414 36554 ft 458 kts 65°
2026-05-04 23:53 11.67736 -3.10428 36302 ft 458 kts 65°
2026-05-04 23:54 11.68991 -3.07467 35826 ft 455 kts 65°
2026-05-04 23:54 11.70256 -3.04485 35242 ft 454 kts 65°
2026-05-04 23:54 11.71505 -3.01534 34816 ft 450 kts 65°
2026-05-04 23:54 11.72724 -2.98658 34308 ft 447 kts 66°
2026-05-04 23:55 11.73970 -2.95717 33502 ft 452 kts 66°
2026-05-04 23:55 11.75224 -2.92778 32956 ft 449 kts 64°
2026-05-04 23:55 11.78264 -2.87314 31954 ft 441 kts 59°
2026-05-04 23:56 11.79806 -2.84618 31488 ft 437 kts 59°
2026-05-04 23:56 11.81339 -2.81943 31027 ft 434 kts 59°
2026-05-04 23:56 11.82862 -2.79287 30566 ft 431 kts 59°
2026-05-04 23:56 11.84371 -2.76655 30117 ft 428 kts 59°
2026-05-04 23:57 11.85845 -2.74083 29640 ft 424 kts 59°
2026-05-04 23:57 11.87360 -2.71439 29142 ft 421 kts 59°
2026-05-04 23:57 11.88817 -2.68895 28666 ft 417 kts 59°
2026-05-04 23:57 11.90283 -2.66336 28198 ft 414 kts 59°
2026-05-04 23:58 11.91737 -2.63796 27751 ft 411 kts 59°
2026-05-04 23:58 11.93145 -2.61336 27319 ft 407 kts 59°
2026-05-04 23:58 11.94580 -2.58827 26894 ft 404 kts 59°
2026-05-04 23:58 11.95996 -2.56354 26473 ft 401 kts 59°
2026-05-04 23:59 11.97399 -2.53900 26067 ft 397 kts 59°
2026-05-04 23:59 11.98761 -2.51518 25678 ft 394 kts 59°
2026-05-04 23:59 12.00167 -2.49058 25271 ft 391 kts 59°
2026-05-04 23:59 12.01535 -2.46665 24890 ft 388 kts 59°
2026-05-05 00:00 12.02880 -2.44309 24517 ft 386 kts 60°
2026-05-05 00:00 12.03334 -2.43515 24392 ft 385 kts 60°
2026-05-05 00:00 12.05555 -2.39627 23783 ft 380 kts 60°
2026-05-05 00:00 12.06892 -2.37285 23409 ft 378 kts 60°
2026-05-05 00:01 12.08216 -2.34964 23007 ft 374 kts 60°
2026-05-05 00:01 12.09511 -2.32696 22640 ft 370 kts 60°
2026-05-05 00:01 12.10809 -2.30422 22228 ft 368 kts 60°
2026-05-05 00:01 12.12091 -2.28174 21848 ft 364 kts 60°
2026-05-05 00:02 12.13346 -2.25973 21464 ft 361 kts 60°
2026-05-05 00:02 12.14602 -2.23769 21112 ft 357 kts 60°
2026-05-05 00:02 12.15854 -2.21570 20709 ft 355 kts 61°
2026-05-05 00:02 12.17094 -2.19395 20377 ft 351 kts 61°
2026-05-05 00:03 12.18316 -2.17250 20013 ft 348 kts 61°
2026-05-05 00:03 12.19530 -2.15120 19728 ft 343 kts 61°
2026-05-05 00:03 12.20714 -2.13041 19564 ft 334 kts 61°
2026-05-05 00:03 12.21875 -2.11002 19326 ft 328 kts 61°
2026-05-05 00:04 12.23007 -2.09013 18987 ft 326 kts 61°
2026-05-05 00:04 12.24125 -2.07050 18679 ft 323 kts 61°
2026-05-05 00:04 12.25266 -2.05043 18355 ft 321 kts 61°
2026-05-05 00:04 12.26377 -2.03090 18011 ft 318 kts 61°
2026-05-05 00:05 12.27489 -2.01137 17656 ft 316 kts 61°
2026-05-05 00:05 12.28586 -1.99207 17281 ft 314 kts 62°
2026-05-05 00:05 12.29683 -1.97276 16923 ft 311 kts 61°
2026-05-05 00:05 12.30764 -1.95376 16578 ft 309 kts 61°
2026-05-05 00:06 12.31843 -1.93475 16210 ft 307 kts 62°
2026-05-05 00:06 12.32913 -1.91593 15878 ft 305 kts 61°
2026-05-05 00:06 12.33975 -1.89724 15528 ft 303 kts 61°
2026-05-05 00:06 12.35011 -1.87900 15196 ft 301 kts 61°
2026-05-05 00:07 12.36080 -1.86016 14858 ft 298 kts 61°
2026-05-05 00:07 12.37106 -1.84209 14533 ft 297 kts 61°
2026-05-05 00:07 12.38141 -1.82386 14199 ft 294 kts 62°
2026-05-05 00:07 12.39166 -1.80580 13884 ft 293 kts 62°
2026-05-05 00:08 12.40186 -1.78781 13550 ft 291 kts 61°
2026-05-05 00:08 12.41192 -1.77010 13173 ft 290 kts 61°
2026-05-05 00:08 12.42208 -1.75218 12808 ft 288 kts 61°
2026-05-05 00:08 12.43196 -1.73477 12398 ft 284 kts 61°
2026-05-05 00:09 12.44189 -1.71725 11768 ft 284 kts 61°
2026-05-05 00:09 12.45175 -1.69986 11180 ft 282 kts 60°
2026-05-05 00:09 12.46156 -1.68247 10610 ft 279 kts 60°
2026-05-05 00:09 12.47134 -1.66568 10030 ft 278 kts 54°
2026-05-05 00:10 12.48591 -1.65252 9455 ft 277 kts 30°
2026-05-05 00:10 12.50330 -1.64430 8814 ft 276 kts 33°
2026-05-05 00:10 12.51648 -1.63067 8282 ft 270 kts 59°
2026-05-05 00:10 12.52341 -1.61275 7682 ft 271 kts 77°
2026-05-05 00:11 12.52385 -1.59348 7112 ft 273 kts 98°
2026-05-05 00:11 12.51695 -1.57550 6559 ft 278 kts 121°
2026-05-05 00:11 12.50530 -1.55994 5963 ft 278 kts 123°
2026-05-05 00:11 12.49392 -1.54369 5399 ft 278 kts 123°
2026-05-05 00:12 12.48363 -1.52714 4858 ft 272 kts 110°
2026-05-05 00:12 12.48048 -1.50850 4337 ft 265 kts 84°
2026-05-05 00:12 12.48330 -1.48992 3762 ft 265 kts 79°
2026-05-05 00:12 12.48692 -1.47167 3443 ft 256 kts 78°
2026-05-05 00:13 12.49008 -1.45411 3201 ft 245 kts 89°
2026-05-05 00:13 12.48575 -1.43823 2987 ft 227 kts 129°
2026-05-05 00:13 12.47371 -1.42988 2891 ft 202 kts 172°
2026-05-05 00:13 12.46087 -1.43227 2697 ft 183 kts 219°
2026-05-05 00:14 12.45342 -1.44231 2736 ft 183 kts 237°
2026-05-05 00:14 12.44476 -1.45131 2665 ft 173 kts 216°
2026-05-05 00:14 12.43531 -1.45739 2599 ft 148 kts 213°
2026-05-05 00:14 12.42687 -1.46295 2496 ft 142 kts 216°
2026-05-05 00:15 12.41859 -1.46848 2315 ft 141 kts 215°
2026-05-05 00:15 12.41049 -1.47414 2124 ft 143 kts 215°
2026-05-05 00:15 12.40211 -1.47977 1915 ft 144 kts 215°
2026-05-05 00:15 12.39398 -1.48531 1710 ft 138 kts 213°
2026-05-05 00:16 12.38532 -1.49102 1475 ft 154 kts 212°
2026-05-05 00:16 12.37648 -1.49692 1268 ft 152 kts 211°
2026-05-05 00:16 12.36774 -1.50265 1088 ft 148 kts 212°
2026-05-05 00:16 12.35939 -1.50819 1006 ft 137 kts 212°
2026-05-05 00:17 12.35237 -1.51289 1021 ft 101 kts 213°
2026-05-05 00:17 12.34777 -1.51595 1036 ft 57 kts 213°
2026-05-05 00:17 12.34559 -1.51740 1039 ft 28 kts 213°
2026-05-05 00:17 12.34424 -1.51831 1041 ft 17 kts 212°
2026-05-05 00:18 12.34322 -1.51898 1042 ft 18 kts 213°
2026-05-05 00:18 12.34226 -1.51954 1043 ft 13 kts 204°
2026-05-05 00:18 12.34198 -1.52001 1044 ft 5 kts 307°
2026-05-05 00:18 12.34233 -1.51986 1043 ft 11 kts 58°
2026-05-05 00:19 12.34317 -1.51900 1042 ft 21 kts 34°
2026-05-05 00:19 12.34446 -1.51813 1041 ft 21 kts 32°
2026-05-05 00:19 12.34568 -1.51735 1039 ft 21 kts 33°
2026-05-05 00:19 12.34697 -1.51650 1039 ft 23 kts 32°
2026-05-05 00:20 12.34809 -1.51574 1035 ft 18 kts 33°
2026-05-05 00:20 12.34910 -1.51506 1033 ft 18 kts 34°
2026-05-05 00:20 12.35024 -1.51430 1028 ft 22 kts 34°
2026-05-05 00:20 12.35147 -1.51347 1023 ft 21 kts 33°
2026-05-05 00:21 12.35236 -1.51329 1020 ft 13 kts 322°
2026-05-05 00:21 12.35272 -1.51379 1019 ft 7 kts 305°
2026-05-05 00:21 12.35302 -1.51424 1018 ft 8 kts 304°
2026-05-05 00:21 12.35325 -1.51447 1018 ft 5 kts 325°
2026-05-05 00:22 12.35343 -1.51446 1018 ft 1 kts 31°
2026-05-05 00:22 12.35346 -1.51440 1018 ft 1 kts 62°
2026-05-05 00:22 12.35347 -1.51437 1017 ft 0 kts 72°